Temperature
5 5 6 6 6 6 6 6 5 5 5 5 6 6 6 6 7 7 7 7 7 7 6 6 6 6 6 6 6 6 6 5 5 5 5 5 4 4
5 5 5 5 5 5 6 5 5 5 4 5 5 6 6 6 6 6 6 6 6 6 6 6 6 6 5 5 5 5 5 5 5 5 4 4 4 4
5 5 5 5 5 5 5 5 5 5 4 5 5 5 5 5 6 6 6 6 6 6 6 6 6 5 5 5 5 5 5 4 4 4 4 4 4 4
4 4 4 4 5 5 5 5 5 4 4 4 4 4 4 5 5 5 5 5 5 5 5 5 5 5 5 5 5 4 4 4 4 4 4 4 4 3
3 4 4 4 4 4 4 4 4 4 4 4 4 4 4 4 4 4 4 4 5 5 5 5 5 5 4 4 4 4 4 4 4 3 3 3 3 3
3 3 3 3 3 4 4 4 3 3 3 3 3 3 3 3 3 4 4 4 4 4 4 4 4 4 4 4 4 4 3 3 3 3 3 3 3 3
3 3 3 3 3 3 3 3 3 3 3 3 3 3 3 3 3 3 3 3 3 3 3 4 4 4 4 4 3 3 3 3 3 3 3 3 2 2
2 2 2 2 3 3 2 2 2 2 2 2 2 2 2 2 2 2 2 2 2 3 3 3 3 3 3 3 3 3 3 3 3 2 2 2 2 2
2 2 2 2 2 2 2 2 2 2 2 2 2 2 2 2 2 2 2 2 2 2 2 3 3 3 3 3 3 3 2 2 2 2 2 2 2 2
1 1 1 1 1 1 1 2 2 2 2 1 2 2 2 2 2 2 2 2 2 2 2 2 3 3 3 2 2 2 2 2 2 2 2 2 2 2
0 1 1 1 1 1 1 1 1 1 1 1 1 1 1 1 1 1 1 1 1 1 1 1 2 2 2 2 2 2 2 2 1 1 1 1 1 1
-0 -0 0 0 0 0 0 0 1 1 1 1 1 1 1 1 1 1 1 1 1 1 1 1 1 1 1 1 1 1 1 1 1 1 1 1 1 1
-1 -1 -0 -0 -0 -0 -0 -0 0 0 0 0 1 1 1 1 1 1 1 1 1 1 1 0 1 1 0 0 1 1 1 1 1 1 1 0 0 0
-1 -1 -1 -1 -1 -0 -0 -0 -0 -0 -0 0 0 0 0 1 1 0 0 0 1 1 1 0 0 0 0 -0 0 0 0 0 0 0 0 0 0 0
-2 -2 -2 -1 -1 -1 -1 -1 -1 -0 -0 -0 -0 -0 0 0 0 0 0 0 0 0 0 0 0 0 -0 -0 -0 -0 -0 -0 -0 -0 -0 -0 0 0
-2 -2 -2 -2 -2 -1 -1 -1 -1 -1 -1 -1 -1 -1 -0 -0 -0 -0 -0 -0 0 0 -0 -0 -0 -0 -0 -0 -0 -1 -1 -1 -1 -0 -0 -0 -0 -0
-2 -2 -2 -2 -2 -2 -1 -1 -1 -1 -1 -1 -1 -1 -1 -1 -1 -1 -1 -0 -1 -0 -0 -0 -1 -1 -1 -1 -1 -1 -1 -1 -1 -1 -1 -0 -0 -0
-3 -2 -2 -2 -2 -2 -2 -2 -2 -2 -2 -2 -1 -1 -1 -1 -1 -1 -1 -1 -1 -1 -1 -1 -1 -1 -1 -1 -1 -1 -1 -1 -1 -1 -1 -1 -1 -0
-3 -3 -3 -3 -3 -3 -2 -2 -2 -2 -2 -2 -2 -2 -2 -2 -1 -1 -1 -1 -1 -1 -1 -1 -1 -1 -1 -2 -1 -1 -1 -1 -1 -1 -1 -1 -1 -1
-3 -3 -3 -3 -3 -3 -3 -3 -3 -2 -2 -2 -2 -2 -2 -2 -2 -2 -2 -1 -1 -2 -2 -2 -2 -2 -2 -2 -2 -2 -2 -2 -1 -1 -1 -1 -1 -1
-4 -4 -4 -4 -3 -3 -3 -3 -3 -3 -3 -3 -3 -2 -2 -2 -2 -2 -2 -2 -2 -2 -2 -2 -2 -2 -2 -2 -2 -2 -2 -2 -2 -2 -2 -2 -2 -1
-4 -4 -4 -4 -4 -4 -3 -3 -3 -3 -3 -3 -3 -3 -2 -2 -2 -2 -2 -2 -2 -2 -2 -2 -2 -2 -2 -2 -2 -2 -2 -2 -2 -2 -2 -2 -2 -2
-4 -4 -4 -4 -4 -4 -4 -4 -3 -3 -3 -3 -3 -3 -3 -3 -2 -2 -2 -2 -2 -2 -2 -2 -2 -2 -2 -2 -2 -2 -2 -2 -2 -2 -2 -2 -2 -2
Wind_Speed
4 4 3 3 3 3 3 3 4 4 4 3 2 2 2 2 4 5 5 7 7 8 7 7 7 7 7 7 6 6 6 7 7 7 8 9 10 11
3 4 4 3 3 3 4 3 4 4 4 3 2 2 2 3 4 4 5 7 8 8 8 7 6 5 6 7 6 6 6 6 6 6 7 8 9 10
2 3 4 4 3 3 3 3 4 4 5 4 3 2 2 3 3 4 4 5 7 8 8 7 6 5 6 7 6 6 6 5 6 6 7 8 9 10
3 3 4 4 4 4 4 4 4 4 4 5 3 2 3 3 3 3 3 4 5 7 7 7 6 6 7 7 6 6 5 5 5 6 7 8 9 9
3 3 3 3 5 3 3 4 3 3 3 4 4 3 2 2 2 3 3 2 3 5 6 6 6 7 7 6 5 5 5 5 5 6 7 7 8 9
3 3 3 4 4 4 4 4 4 3 3 3 3 3 2 2 2 2 2 2 2 2 4 4 5 6 6 6 5 5 4 4 5 5 6 6 7 8
3 3 3 4 5 5 4 4 4 4 3 3 3 3 3 2 2 2 2 2 3 1 1 2 3 3 4 5 4 4 4 4 4 5 5 5 6 7
3 3 3 4 4 5 4 5 5 6 5 4 4 4 4 3 2 1 1 1 2 1 1 3 2 3 3 3 4 3 3 3 4 4 4 5 6 7
3 3 3 2 2 2 3 3 4 5 6 5 5 5 5 4 3 2 2 2 3 2 1 3 2 3 3 4 4 3 2 2 3 3 4 5 6 7
3 2 2 2 2 1 1 2 3 3 4 4 4 5 4 3 4 4 3 2 2 1 1 2 2 2 2 3 3 2 1 2 3 3 4 5 6 7
2 2 2 1 2 1 1 2 2 2 2 4 4 4 4 4 3 2 2 1 2 2 1 1 1 1 1 1 2 1 2 3 3 4 4 5 6 6
2 2 2 2 2 2 2 2 3 2 2 2 2 2 3 3 4 4 4 3 1 2 1 0 0 1 1 1 1 1 1 2 3 4 5 6 6 4
2 2 2 3 3 3 2 2 2 2 2 2 2 1 1 1 2 1 2 3 3 3 2 1 1 1 1 1 1 1 1 1 2 3 4 6 6 5
3 3 3 4 3 3 2 2 2 1 1 1 0 1 1 1 0 0 0 1 3 3 3 2 2 1 0 1 1 1 2 2 1 2 2 4 5 6
3 4 5 5 3 2 2 2 1 0 0 0 0 1 1 1 1 1 1 1 1 2 1 2 2 2 1 1 1 1 1 1 2 2 2 2 2 3
3 4 5 5 3 3 2 2 1 0 0 0 0 1 0 1 1 1 0 0 1 2 3 2 1 1 1 1 1 1 1 1 2 2 2 2 2 2
3 2 2 3 3 2 2 2 2 1 1 1 0 0 0 1 0 0 1 0 1 0 1 2 2 1 1 1 1 1 1 1 2 2 2 2 3 3
3 2 3 2 3 3 2 2 2 1 1 1 1 0 0 1 0 0 0 1 1 1 0 0 1 2 2 2 0 1 1 1 2 2 1 2 3 3
3 2 2 3 3 2 2 2 2 2 1 1 1 0 0 1 0 0 1 1 1 1 1 0 0 1 0 1 2 1 0 1 1 2 2 2 3 4
3 3 3 3 3 2 2 2 2 2 2 1 1 0 0 1 1 1 1 1 1 1 0 1 0 1 1 1 1 2 3 1 1 2 2 2 3 5
4 3 3 3 2 2 2 2 2 2 2 2 1 1 0 0 0 0 1 1 1 1 0 1 1 1 1 1 1 2 2 3 2 1 2 2 3 3
4 4 3 3 3 3 2 2 2 2 2 2 2 1 1 1 0 0 0 0 0 0 0 0 1 1 1 1 1 1 3 4 4 5 3 2 1 1
4 4 3 3 3 3 2 2 2 2 2 2 2 2 1 1 1 1 1 1 1 1 1 1 1 1 1 1 1 1 2 3 3 3 3 6 5 4
Wind_Direction
240 238 244 250 235 229 222 209 214 244 254 242 232 224 211 230 233 230 233 237 242 246 252 258 264 269 277 278 281 282 285 289 296 299 300 303 306 307
252 240 245 253 244 226 219 224 222 229 248 243 244 260 253 264 252 252 244 241 242 247 250 253 254 263 277 276 281 279 282 289 296 301 303 307 310 309
273 253 245 247 244 231 221 220 225 225 247 265 263 256 249 254 271 268 257 238 242 242 245 247 250 259 273 273 277 279 285 293 297 300 304 307 311 312
261 260 257 252 244 233 224 222 222 221 234 257 273 264 254 237 254 268 271 256 238 240 246 246 249 258 266 268 273 278 281 288 296 305 307 308 310 312
267 261 262 258 251 238 226 227 229 232 230 240 258 263 261 252 249 266 265 281 254 243 244 241 247 258 265 265 268 277 276 282 295 301 304 307 310 311
281 274 268 260 266 253 235 227 224 228 229 230 243 250 258 253 222 232 280 300 288 270 257 255 260 263 259 260 262 270 275 286 298 305 306 309 313 314
283 275 266 262 266 263 251 228 219 223 225 228 233 249 254 236 224 211 258 302 294 273 247 273 283 265 249 251 253 263 274 287 301 309 311 313 313 314
274 273 269 258 268 267 268 256 229 218 220 225 237 236 236 231 234 228 247 290 287 271 265 273 274 261 259 247 251 257 264 287 305 316 318 315 313 315
270 272 281 275 279 257 270 282 259 237 225 219 224 231 229 222 216 232 249 248 261 250 283 261 256 261 279 272 264 251 263 306 317 319 323 322 322 323
284 273 273 282 263 270 267 266 262 248 233 225 220 230 229 212 206 224 236 256 298 270 222 243 251 271 295 272 246 226 288 321 324 323 324 327 328 327
299 298 280 261 283 299 267 261 273 272 256 244 239 245 240 235 223 216 200 190 280 281 254 210 249 314 291 256 251 251 306 321 326 320 324 333 333 328
313 312 295 280 277 276 250 239 258 263 269 270 251 250 239 230 217 204 196 197 222 263 259 228 197 34 325 292 307 301 308 323 334 330 333 340 340 341
318 321 313 306 290 290 290 253 272 269 250 259 241 227 219 207 193 195 201 201 215 237 220 159 191 154 198 290 313 318 331 330 329 323 328 336 338 340
317 321 325 316 307 310 311 312 325 312 249 255 232 221 209 219 268 119 216 246 245 235 225 204 190 192 201 281 280 311 322 333 350 339 327 331 335 332
328 335 338 334 331 338 345 341 349 10 53 130 271 269 242 207 115 84 47 4 328 302 274 267 204 203 203 231 249 269 311 322 345 346 332 328 325 330
338 344 350 349 348 345 349 350 357 45 82 183 303 294 293 111 114 121 156 51 22 6 7 355 240 180 209 234 225 268 292 294 324 336 339 331 334 332
333 341 353 352 355 358 8 10 14 28 30 36 83 132 131 128 139 133 183 196 187 258 5 20 23 48 120 185 227 238 272 311 307 319 329 323 319 325
352 354 356 353 351 355 2 6 5 10 16 26 40 72 173 163 158 142 154 172 174 184 192 108 69 55 41 23 321 231 272 301 313 317 321 311 310 320
12 6 358 357 353 354 356 359 353 350 7 28 13 344 177 156 150 176 170 157 166 187 224 206 116 110 88 321 328 349 281 305 315 313 316 312 296 303
13 8 2 357 349 347 352 358 358 1 9 11 4 343 200 174 171 189 186 164 173 180 32 13 357 213 212 233 260 318 340 322 294 299 309 312 310 312
1 1 357 352 346 348 356 1 357 355 359 358 348 339 352 153 161 177 160 177 175 166 185 313 302 338 80 94 61 356 346 357 345 295 300 317 327 335
353 353 354 356 356 356 359 356 350 349 355 355 348 350 6 63 88 163 142 149 186 188 224 323 359 51 85 122 101 359 347 351 3 5 358 335 292 295
348 348 351 356 358 353 348 345 342 344 352 355 352 350 360 33 53 57 67 92 117 115 98 91 59 63 79 117 111 51 1 351 356 6 358 355 348 323
Height
1450 1450 1451 1451 1452 1453 1454 1454 1455 1453 1453 1453 1454 1455 1456 1457 1457 1458 1458 1459 1459 1459 1459 1459 1459 1458 1458 1458 1457 1457 1456 1455 1454 1453 1452 1451 1449 1448
1445 1445 1446 1447 1448 1448 1449 1449 1450 1450 1449 1448 1449 1450 1451 1452 1452 1453 1453 1454 1454 1455 1455 1454 1454 1454 1454 1454 1453 1452 1452 1451 1450 1449 1448 1447 1445 1444
1441 1441 1441 1442 1443 1443 1444 1445 1445 1446 1445 1444 1445 1446 1446 1447 1447 1448 1448 1449 1449 1450 1450 1450 1449 1449 1450 1450 1449 1448 1448 1447 1446 1445 1444 1442 1441 1440
1436 1437 1436 1437 1438 1439 1439 1440 1440 1441 1441 1440 1440 1441 1441 1442 1442 1443 1443 1444 1445 1445 1445 1445 1445 1445 1445 1445 1445 1444 1444 1443 1442 1441 1440 1438 1437 1436
1432 1432 1432 1433 1433 1433 1434 1435 1436 1436 1437 1436 1436 1437 1437 1438 1438 1439 1439 1439 1440 1441 1441 1441 1441 1441 1441 1441 1441 1441 1440 1439 1438 1437 1436 1435 1433 1432
1428 1428 1428 1428 1428 1428 1429 1430 1431 1432 1432 1432 1432 1433 1433 1434 1435 1434 1435 1435 1436 1437 1437 1437 1437 1437 1437 1437 1437 1437 1436 1435 1434 1433 1432 1431 1430 1428
1424 1424 1424 1424 1424 1424 1424 1425 1426 1427 1427 1427 1428 1429 1429 1430 1430 1431 1431 1431 1432 1432 1432 1433 1433 1433 1433 1433 1433 1433 1432 1431 1431 1429 1428 1428 1426 1425
1420 1419 1419 1419 1419 1420 1420 1421 1422 1422 1423 1423 1423 1424 1425 1426 1427 1427 1427 1427 1427 1429 1428 1429 1429 1429 1429 1429 1429 1429 1428 1428 1427 1426 1425 1425 1424 1422
1416 1416 1415 1415 1415 1416 1416 1416 1417 1418 1419 1420 1419 1420 1421 1422 1423 1423 1424 1424 1424 1424 1425 1424 1426 1426 1426 1426 1426 1425 1425 1425 1424 1423 1423 1422 1421 1419
1413 1412 1412 1412 1412 1413 1413 1413 1413 1414 1415 1415 1416 1417 1418 1419 1419 1420 1420 1421 1422 1422 1422 1421 1421 1422 1422 1423 1423 1422 1422 1422 1421 1420 1420 1419 1418 1416
1409 1409 1409 1409 1410 1410 1410 1410 1410 1410 1411 1412 1413 1413 1414 1415 1415 1416 1417 1417 1417 1418 1419 1418 1417 1418 1419 1419 1420 1419 1419 1419 1418 1418 1417 1416 1415 1414
1406 1406 1406 1407 1407 1407 1407 1407 1407 1407 1407 1408 1409 1409 1410 1411 1412 1412 1413 1413 1414 1415 1415 1415 1415 1415 1415 1416 1417 1417 1417 1416 1416 1415 1415 1414 1412 1411
1404 1404 1403 1404 1404 1404 1404 1404 1404 1404 1404 1405 1405 1405 1406 1407 1408 1409 1410 1411 1411 1412 1413 1413 1413 1413 1414 1414 1414 1414 1414 1413 1413 1413 1412 1412 1411 1409
1402 1402 1401 1401 1401 1402 1402 1401 1401 1402 1402 1401 1401 1402 1403 1404 1405 1406 1407 1408 1409 1410 1410 1411 1410 1411 1411 1411 1411 1411 1411 1411 1411 1410 1410 1409 1409 1408
1401 1400 1399 1399 1399 1399 1399 1399 1398 1398 1399 1399 1398 1399 1400 1401 1402 1403 1404 1406 1407 1407 1407 1408 1408 1409 1409 1409 1409 1409 1408 1408 1409 1408 1408 1407 1406 1405
1399 1398 1398 1397 1397 1397 1397 1396 1396 1396 1396 1396 1396 1397 1398 1399 1399 1401 1401 1402 1403 1404 1405 1406 1406 1406 1406 1407 1407 1407 1407 1407 1407 1406 1405 1405 1404 1403
1398 1397 1396 1395 1395 1395 1395 1395 1394 1394 1395 1394 1394 1395 1395 1396 1397 1398 1399 1400 1401 1401 1402 1403 1404 1404 1405 1405 1405 1405 1405 1405 1405 1404 1403 1402 1402 1401
1397 1396 1395 1395 1394 1394 1394 1393 1393 1393 1393 1393 1393 1393 1393 1394 1396 1397 1397 1398 1399 1399 1400 1401 1401 1402 1403 1403 1404 1403 1403 1403 1403 1403 1402 1401 1400 1399
1396 1395 1395 1394 1394 1393 1393 1393 1392 1392 1392 1392 1392 1392 1393 1393 1394 1395 1396 1396 1397 1398 1399 1399 1400 1400 1400 1401 1402 1403 1402 1402 1401 1401 1401 1400 1398 1398
1395 1395 1394 1394 1393 1393 1392 1392 1391 1391 1391 1391 1391 1391 1392 1392 1393 1394 1394 1395 1395 1396 1397 1398 1398 1399 1400 1400 1400 1401 1401 1401 1400 1399 1399 1398 1398 1397
1395 1395 1394 1393 1393 1392 1392 1391 1391 1390 1390 1391 1390 1391 1391 1391 1392 1393 1393 1394 1394 1395 1395 1396 1397 1399 1399 1399 1399 1399 1399 1400 1399 1398 1398 1397 1395 1394
1396 1395 1394 1393 1392 1392 1391 1391 1390 1390 1390 1390 1390 1390 1390 1390 1391 1391 1392 1392 1393 1394 1395 1396 1397 1397 1397 1397 1397 1397 1398 1398 1398 1398 1398 1397 1395 1394
1396 1395 1394 1393 1392 1392 1391 1391 1390 1390 1390 1389 1389 1389 1390 1390 1390 1390 1391 1391 1392 1393 1394 1395 1395 1396 1396 1397 1397 1397 1397 1397 1397 1397 1397 1396 1396 1395